AUA2AY LOWW-LOWL

Flight info

Callsign AUA2AY
Flight time 0h 21m
Altitude 16000
Route SOVIL1C/29 SOVIL DCT SITNI SITNI2K
Aircraft A20N/M-SDE2E3FGHIRWXY/LB1

Departure

Time 2026-04-26 18:05
Airport Vienna International Airport (LOWW)

Arrival

Time 2026-04-26 18:27
Airport Linz-Hörsching Airport (LOWL)
Time Latitude Longitude Altitude Speed Heading
2026-04-26 17:16 48.11738 16.56678 602 ft 0 kts 27°
2026-04-26 17:51 48.11735 16.56675 602 ft 0 kts 27°
2026-04-26 17:51 48.11727 16.56669 603 ft 2 kts 27°
2026-04-26 17:52 48.11717 16.56662 603 ft 1 kts 27°
2026-04-26 17:52 48.11713 16.56658 603 ft 1 kts 27°
2026-04-26 17:52 48.11706 16.56653 603 ft 1 kts 26°
2026-04-26 17:52 48.11699 16.56648 621 ft 1 kts 28°
2026-04-26 17:53 48.11694 16.56644 621 ft 1 kts 33°
2026-04-26 17:53 48.11689 16.56639 604 ft 1 kts 40°
2026-04-26 17:53 48.11685 16.56634 618 ft 1 kts 46°
2026-04-26 17:54 48.11678 16.56621 620 ft 1 kts 75°
2026-04-26 17:54 48.11676 16.56617 620 ft 0 kts 92°
2026-04-26 17:54 48.11676 16.56613 620 ft 0 kts 106°
2026-04-26 17:54 48.11676 16.56609 619 ft 0 kts 120°
2026-04-26 17:55 48.11676 16.56608 619 ft 0 kts 122°
2026-04-26 17:55 48.11680 16.56599 622 ft 0 kts 116°
2026-04-26 17:57 48.11668 16.56641 617 ft 6 kts 111°
2026-04-26 17:57 48.11646 16.56717 617 ft 10 kts 115°
2026-04-26 17:57 48.11615 16.56817 616 ft 12 kts 115°
2026-04-26 17:57 48.11576 16.56939 611 ft 14 kts 115°
2026-04-26 17:58 48.11473 16.57246 617 ft 0 kts 116°
2026-04-26 18:00 48.11470 16.57254 611 ft 3 kts 116°
2026-04-26 18:00 48.11452 16.57308 623 ft 9 kts 116°
2026-04-26 18:00 48.11430 16.57376 612 ft 6 kts 116°
2026-04-26 18:00 48.11399 16.57390 615 ft 4 kts 191°
2026-04-26 18:01 48.11367 16.57369 614 ft 7 kts 205°
2026-04-26 18:01 48.11314 16.57331 624 ft 10 kts 206°
2026-04-26 18:01 48.11242 16.57279 628 ft 11 kts 205°
2026-04-26 18:01 48.11193 16.57317 622 ft 10 kts 117°
2026-04-26 18:02 48.11158 16.57434 621 ft 13 kts 116°
2026-04-26 18:02 48.11128 16.57524 616 ft 16 kts 116°
2026-04-26 18:02 48.11051 16.57649 629 ft 12 kts 185°
2026-04-26 18:02 48.11021 16.57630 625 ft 0 kts 208°
2026-04-26 18:03 48.11020 16.57629 625 ft 0 kts 208°
2026-04-26 18:03 48.11009 16.57621 618 ft 5 kts 205°
2026-04-26 18:03 48.10953 16.57581 622 ft 9 kts 206°
2026-04-26 18:03 48.10931 16.57499 620 ft 10 kts 283°
2026-04-26 18:04 48.10950 16.57425 629 ft 0 kts 296°
2026-04-26 18:04 48.10950 16.57424 629 ft 0 kts 296°
2026-04-26 18:04 48.10959 16.57396 629 ft 12 kts 296°
2026-04-26 18:05 48.11436 16.55931 625 ft 135 kts 296°
2026-04-26 18:05 48.11903 16.54537 901 ft 151 kts 301°
2026-04-26 18:05 48.12366 16.53133 1536 ft 152 kts 295°
2026-04-26 18:05 48.12602 16.51565 2126 ft 158 kts 275°
2026-04-26 18:06 48.12265 16.49926 2590 ft 177 kts 237°
2026-04-26 18:06 48.11448 16.48428 3084 ft 195 kts 231°
2026-04-26 18:06 48.10516 16.46831 3588 ft 216 kts 233°
2026-04-26 18:06 48.09553 16.45024 4402 ft 223 kts 234°
2026-04-26 18:07 48.08559 16.43200 5351 ft 233 kts 237°
2026-04-26 18:07 48.07664 16.41114 6127 ft 242 kts 255°
2026-04-26 18:07 48.07378 16.38606 6748 ft 248 kts 269°
2026-04-26 18:07 48.07309 16.36885 6886 ft 251 kts 269°
2026-04-26 18:08 48.07234 16.33404 7063 ft 255 kts 270°
2026-04-26 18:08 48.07188 16.30741 7639 ft 258 kts 270°
2026-04-26 18:08 48.07136 16.28069 8761 ft 257 kts 271°
2026-04-26 18:08 48.07078 16.25355 9746 ft 264 kts 271°
2026-04-26 18:09 48.07014 16.22562 10565 ft 277 kts 271°
2026-04-26 18:09 48.06944 16.19553 10998 ft 301 kts 271°
2026-04-26 18:09 48.06867 16.16310 11467 ft 320 kts 270°
2026-04-26 18:09 48.06782 16.12960 12328 ft 325 kts 270°
2026-04-26 18:10 48.06694 16.09556 13229 ft 330 kts 270°
2026-04-26 18:10 48.06604 16.06098 14080 ft 336 kts 271°
2026-04-26 18:10 48.06512 16.02587 14862 ft 339 kts 271°
2026-04-26 18:10 48.06419 15.99036 15614 ft 345 kts 270°
2026-04-26 18:11 48.06323 15.95438 16039 ft 348 kts 270°
2026-04-26 18:11 48.06227 15.91814 16191 ft 349 kts 270°
2026-04-26 18:11 48.06128 15.88179 16231 ft 350 kts 270°
2026-04-26 18:11 48.06028 15.84548 16227 ft 349 kts 270°
2026-04-26 18:12 48.05927 15.80926 16230 ft 349 kts 270°
2026-04-26 18:12 48.05826 15.77305 16228 ft 349 kts 270°
2026-04-26 18:12 48.05725 15.73717 16234 ft 349 kts 270°
2026-04-26 18:12 48.05621 15.70088 16231 ft 349 kts 270°
2026-04-26 18:13 48.05517 15.66453 16225 ft 349 kts 270°
2026-04-26 18:13 48.05411 15.62821 16225 ft 349 kts 270°
2026-04-26 18:13 48.05303 15.59191 16226 ft 349 kts 270°
2026-04-26 18:13 48.05230 15.56789 16224 ft 349 kts 270°
2026-04-26 18:14 48.05083 15.51926 16227 ft 350 kts 270°
2026-04-26 18:14 48.04973 15.48301 16218 ft 349 kts 270°
2026-04-26 18:14 48.04863 15.44681 16023 ft 348 kts 269°
2026-04-26 18:14 48.04751 15.41091 15412 ft 353 kts 270°
2026-04-26 18:15 48.04644 15.37397 14598 ft 358 kts 271°
2026-04-26 18:15 48.04696 15.33709 14158 ft 350 kts 273°
2026-04-26 18:15 48.04758 15.30112 13678 ft 343 kts 273°
2026-04-26 18:15 48.04817 15.26574 13219 ft 336 kts 273°
2026-04-26 18:16 48.04873 15.23117 12775 ft 330 kts 273°
2026-04-26 18:16 48.04978 15.16374 11899 ft 319 kts 273°
2026-04-26 18:16 48.05027 15.13088 11461 ft 314 kts 273°
2026-04-26 18:17 48.05075 15.09856 11036 ft 308 kts 272°
2026-04-26 18:17 48.05121 15.06674 10640 ft 303 kts 272°
2026-04-26 18:17 48.05164 15.03597 10510 ft 290 kts 272°
2026-04-26 18:17 48.05205 15.00661 10396 ft 276 kts 272°
2026-04-26 18:18 48.05244 14.97840 10116 ft 269 kts 272°
2026-04-26 18:18 48.05281 14.95087 9979 ft 258 kts 272°
2026-04-26 18:18 48.05315 14.92470 9615 ft 255 kts 272°
2026-04-26 18:18 48.05379 14.89847 9366 ft 249 kts 279°
2026-04-26 18:19 48.06000 14.87352 9244 ft 267 kts 300°
2026-04-26 18:19 48.07022 14.85042 9144 ft 265 kts 303°
2026-04-26 18:19 48.08070 14.82788 8826 ft 263 kts 303°
2026-04-26 18:19 48.09127 14.80550 8401 ft 264 kts 304°
2026-04-26 18:20 48.10184 14.78313 7975 ft 263 kts 304°
2026-04-26 18:20 48.11241 14.76070 7562 ft 263 kts 304°
2026-04-26 18:20 48.12287 14.73838 7151 ft 263 kts 304°
2026-04-26 18:20 48.12995 14.72325 6891 ft 263 kts 304°
2026-04-26 18:21 48.14391 14.69339 6309 ft 265 kts 304°
2026-04-26 18:21 48.15445 14.67080 5918 ft 263 kts 303°
2026-04-26 18:21 48.16494 14.64838 5498 ft 263 kts 303°
2026-04-26 18:21 48.17543 14.62588 5114 ft 264 kts 303°
2026-04-26 18:22 48.18612 14.60288 5010 ft 270 kts 303°
2026-04-26 18:22 48.19680 14.57990 4881 ft 269 kts 303°
2026-04-26 18:22 48.20751 14.55684 4609 ft 269 kts 304°
2026-04-26 18:22 48.21805 14.53408 4354 ft 270 kts 304°
2026-04-26 18:23 48.22879 14.51089 4146 ft 271 kts 305°
2026-04-26 18:23 48.23949 14.48763 4018 ft 271 kts 303°
2026-04-26 18:23 48.24575 14.46115 3994 ft 272 kts 275°
2026-04-26 18:23 48.24495 14.43278 3994 ft 272 kts 263°
2026-04-26 18:24 48.24268 14.40521 3992 ft 259 kts 262°
2026-04-26 18:24 48.24068 14.37904 3916 ft 246 kts 264°
2026-04-26 18:24 48.23921 14.35443 3664 ft 227 kts 265°
2026-04-26 18:24 48.23817 14.33186 3344 ft 207 kts 266°
2026-04-26 18:25 48.23738 14.31096 2962 ft 192 kts 268°
2026-04-26 18:25 48.23662 14.29201 2637 ft 173 kts 268°
2026-04-26 18:25 48.23573 14.27456 2255 ft 164 kts 268°
2026-04-26 18:25 48.23508 14.25771 1876 ft 158 kts 269°
2026-04-26 18:26 48.23484 14.24173 1522 ft 152 kts 271°
2026-04-26 18:26 48.23438 14.22619 1239 ft 145 kts 269°
2026-04-26 18:26 48.23395 14.21121 1042 ft 145 kts 270°
2026-04-26 18:26 48.23350 14.19649 987 ft 126 kts 267°
2026-04-26 18:27 48.23321 14.18737 986 ft 49 kts 267°
2026-04-26 18:27 48.23307 14.18391 988 ft 24 kts 267°
2026-04-26 18:27 48.23297 14.18115 982 ft 28 kts 267°
2026-04-26 18:27 48.23294 14.17973 984 ft 3 kts 270°
2026-04-26 18:28 48.23311 14.17897 988 ft 11 kts 307°
2026-04-26 18:28 48.23393 14.17900 981 ft 15 kts 16°
2026-04-26 18:28 48.23454 14.17925 982 ft 0 kts 15°
2026-04-26 18:29 48.23474 14.17933 980 ft 6 kts 15°
2026-04-26 18:29 48.23532 14.17957 983 ft 11 kts 15°
2026-04-26 18:30 48.23618 14.17994 979 ft 14 kts 16°
2026-04-26 18:30 48.23706 14.18050 990 ft 12 kts 49°
2026-04-26 18:30 48.23722 14.18177 980 ft 14 kts 88°
2026-04-26 18:30 48.23726 14.18332 987 ft 16 kts 87°
2026-04-26 18:31 48.23732 14.18520 979 ft 19 kts 87°
2026-04-26 18:31 48.23739 14.18736 987 ft 22 kts 88°
2026-04-26 18:31 48.23746 14.18956 977 ft 21 kts 87°
2026-04-26 18:31 48.23753 14.19145 984 ft 17 kts 86°
2026-04-26 18:32 48.23759 14.19314 976 ft 1 kts 85°
2026-04-26 18:32 48.23766 14.19343 975 ft 7 kts 58°
2026-04-26 18:32 48.23824 14.19348 982 ft 11 kts 357°
2026-04-26 18:32 48.23849 14.19293 973 ft 8 kts 258°
2026-04-26 18:33 48.23846 14.19259 976 ft 0 kts 267°